This is the latest recevied weather packets stored in our database for station/object N7TUG-8. If no packets are shown the sender has not sent any weather packets the latest 10 day(s).
| Time | Temp. | Humidity | Pressure | Rain* | Wind** | Luminosity | Snow |
|---|---|---|---|---|---|---|---|
| 1777824572 | 18.33° C | 67% | 1013.8 hPa | 0 mm | 3.58 m/s, 323° | - | - |
| 1777823736 | 18.89° C | 67% | 1013.8 hPa | 0 mm | 3.13 m/s, 316° | - | - |
| 1777823638 | 18.89° C | 68% | 1013.8 hPa | 0 mm | 2.68 m/s, 314° | - | - |
| 1777822862 | 18.33° C | 69% | 1013.8 hPa | 0 mm | 3.13 m/s, 318° | - | - |
| 1777822812 | 18.33° C | 69% | 1013.8 hPa | 0 mm | 2.24 m/s, 321° | - | - |
| 1777822012 | 17.78° C | 71% | 1013.8 hPa | 0 mm | 2.24 m/s, 323° | - | - |
| 1777821931 | 17.78° C | 71% | 1013.8 hPa | 0 mm | 2.24 m/s, 323° | - | - |
| 1777821232 | 17.22° C | 72% | 1013.9 hPa | 0 mm | 1.34 m/s, 297° | - | - |
| 1777821086 | 17.22° C | 72% | 1013.9 hPa | 0 mm | 1.34 m/s, 297° | - | - |
| 1777820171 | 16.67° C | 73% | 1013.8 hPa | 0 mm | 2.24 m/s, 318° | - | - |
| 1777819346 | 16.67° C | 72% | 1013.8 hPa | 0 mm | 2.68 m/s, 321° | - | - |
| 1777818426 | 16.67° C | 73% | 1013.9 hPa | 0 mm | 0.45 m/s, 219° | - | - |
| 1777817992 | 17.22° C | 73% | 1013.8 hPa | 0 mm | 0.45 m/s, 191° | - | - |
| 1777817626 | 17.22° C | 73% | 1013.8 hPa | 0 mm | 0.45 m/s, 201° | - | - |
| 1777817272 | 16.67° C | 73% | 1013.7 hPa | 0 mm | 0.45 m/s, 243° | - | - |
| 1777816776 | 15.56° C | 75% | 1013.6 hPa | 0 mm | 0.45 m/s, 9° | - | - |
| 1777816397 | 15° C | 75% | 1013.5 hPa | 0 mm | 0.45 m/s, 350° | - | - |
| 1777815851 | 13.89° C | 77% | 1013.5 hPa | 0 mm | 0.45 m/s, 340° | - | - |
| 1777815662 | 13.89° C | 77% | 1013.5 hPa | 0 mm | 0.45 m/s, 340° | - | - |
| 1777815001 | 14.44° C | 79% | 1013.6 hPa | 0 mm | 0.45 m/s, 143° | - | - |
| 1777814847 | 14.44° C | 79% | 1013.6 hPa | 0 mm | 0.45 m/s, 143° | - | - |
| 1777814136 | 12.22° C | 81% | 1013.5 hPa | 0 mm | 0.45 m/s, 313° | - | - |
| 1777814037 | 12.22° C | 81% | 1013.5 hPa | 0 mm | 0.89 m/s, 337° | - | - |
| 1777813271 | 12.78° C | 80% | 1013.5 hPa | 0 mm | 0.45 m/s, 9° | - | - |
| 1777812507 | 12.78° C | 80% | 1013.5 hPa | 0 mm | 0 m/s | - | - |
* Rain latest hour (hover to see other rain measurements)
** Current wind speed in m/s (hover to see current wind gust speed)